DELTA 1 DEB, 42084

Orbit data source: Space-Track

DELTA 1 DEB, 42084 is space debris in SSO originally from a launch on Sun, 15 Dec 1968 UTC launched from the Air Force Western Test Range (AFWTR). Debris objects in space refer to the collection of defunct objects orbiting the Earth. Examples of debris include non-operational satellites, rocket bodies, and fragments generated from explosions, collisions, or faulty payload assembly.

Loading next visibility...
DELTA 1 DEB details
Identifier
42084, 1968-114L
Orbit
SSO
Last TLE update2 weeks ago
Origin
Flag of USGSFC (US)
ManufacturerAerojet
MissionSpacecraft
Bus & MotorUnknown
MassUnknown
Launch date (UTC)
1968-12-15 (56 years ago)
Launch vehicleUnknown
Launch site
Air Force Western Test Range (AFWTR)
Object type
Payload
Rocket body
Debris
Shape & HBRUnknown
Radar Cross SectionSmall (<0.1 m²)

Expand to show TLE details & history

TLE from 2 weeks ago
0 DELTA 1 DEB
1 42084U 68114L   24349.83889365  .00000565  00000-0  30715-2 0  9994
2 42084 101.7439  33.1069 0345481 175.6120 184.8114 12.53451519990836
Epoch: 2024-12-14T20:08Z
Definitive object data (Epoch: 2024-12-14T20:08:00.411Z)
Latitude-0.00001°
Longitude7.12042°
Altitude1,722.276 km
Speed6.894 km/s
True Right ascension02h 12m 25s
True Declination0° 00' 00"
Sunlit
Object was in daylight at TLE epoch
Visualization TLE readout
Latitude68.66441°
Longitude-12.9735°
Altitude1,407.978 km
Speed7.187 km/s
Apparent Right ascension05h 08m 43s
Apparent Declination30° 15' 10"
Sunlit
Object is in daylight
Visualization observer readout
Local Sidereal Time19:14:31
Azimuth27.677° NE
Elevation-14°
Doppler factor1
Orbital elements
Apogee altitude1,717.994 km
Perigee altitude1,177.264 km
Semi-major axis7,825.766 km
Eccentricity0.0345481
Inclination101.7439°
RAAN33.1069°
Arg. of periapsis175.612°
True anomaly184.49306°
Mean anomaly184.8114°
Eccentric anomaly184.6509°
Mean motion3.13511 °/min
BSTAR0.0030715
Orbital period114.83 mins
Loading maneuver chart data...
Loading historical data...
Loading historical data...
Loading historical data...
Loading historical data...
Loading historical data...
Loading historical data...
Loading historical data...

DELTA 1 DEB Visibility forecast

Observer location: undefined°, undefined

Span
Click to sort rows by Start time (UTC) header in descending order
Start Az.
Max El. time (UTC)
Max El. Az.
Max El.
End time (UTC)
End Az.
13 mins2024-12-27 01:21:47.455Z112.687° SE2024-12-27 01:28:47.455Z59.438° ENE26.484°2024-12-27 01:34:47.455Z6.272° NNE
15 mins2024-12-27 03:13:47.455Z174.546° S2024-12-27 03:20:47.455Z241.814° WSW42.726°2024-12-27 03:28:47.455Z336.501° NNW
10 mins2024-12-27 15:17:47.455Z42.643° NE2024-12-27 15:21:47.455Z90.315° ESE31.361°2024-12-27 15:27:47.455Z162.665° S
11 mins2024-12-27 17:09:47.455Z358.351° N2024-12-27 17:14:47.455Z304.701° NW31.422°2024-12-27 17:20:47.455Z236.057° WSW
|